TITAN 3C TRANSTAGE DEB, 59981

Orbit data source: Space-Track

TITAN 3C TRANSTAGE DEB, 59981 is space debris in GEO originally from a launch on Thu, 26 Sep 1968 UTC launched from the Air Force Eastern Test Range (AFETR). Debris objects in space refer to the collection of defunct objects orbiting the Earth. Examples of debris include non-operational satellites, rocket bodies, and fragments generated from explosions, collisions, or faulty payload assembly.

Not visible in the next 10 days
Identifier
59981, 1968-081AP
Orbit
GEO
Last TLE update
6 months ago
Origin
Manufacturer
Unknown
Mission
Spacecraft
Bus & Motor
Unknown
Mass
Unknown
Launch date (UTC)
1968-09-26 (57 years ago)
Launch vehicle
Unknown
Launch site
Air Force Eastern Test Range (AFETR)
Object type
Payload
Rocket body
Debris
Shape & HBR
Unknown
Radar Cross Section
RCS unknown

Expand to show TLE details & history

TLE from 6 months ago
0 TITAN 3C TRANSTAGE DEB
1 59981U 68081AP  25030.05182975 -.00000078  00000-0  00000-0 0  9998
2 59981   1.4881  29.1419 0242157 269.1747 272.3116  1.00910094 55780
Epoch: 2025-01-30T01:14Z
TLE epoch observation values (Epoch: 2025-01-30T01:14:38.09Z)
Latitude
0.05233°
Longitude
59.66702°
Altitude
35,593.204 km
Speed
3.082 km/s
True Right ascension
13h 51m 26s
True Declination
0° 03' 08"
Sunlit
Object was in daylight at epoch
Visualization orbit readout
Latitude
1.50849°
Longitude
-59.72509°
Altitude
36,453.856 km
Speed
3.02 km/s
Apparent Right ascension
05h 47m 06s
Apparent Declination
-3° 32' 41"
Sunlit
Object is in daylight
Visualization observer readout
Local Sidereal Time
16:47:21
Azimuth
335.757° NNW
Elevation
-51.198°
Doppler factor
1
Orbital elements
Apogee altitude
36,626.436 km
Perigee altitude
34,592.908 km
Semi-major axis
41,987.809 km
Eccentricity
0.02422
Inclination
1.4881°
RAAN
29.1419°
Arg. of periapsis
269.1747°
True anomaly
269.53664°
Mean anomaly
272.3116°
Eccentric anomaly
270.92432°
Mean motion
0.25227 °/min
Orbital period
1,427.07 mins
BSTAR
0
Loading maneuver chart data...
Loading SW <> Apogee altitude chart data...
|